sat.trackr.live / text

‹ back to catalog

ONEWEB-0060

NORAD 45455 · 2020-020AH

PAYLOAD ACTIVE UNKNOWN

§ Identity

Operator
Country
UK
Launch date
2020-03-21
Launch site
TYMSC
Launch vehicle
Mass (kg)
RCS (m²)

Purposes: comms

External: N2YO · Heavens-Above · Gunter

§ Orbital elements

Epoch: 2026-09-10T00:21:34.882848Z

Period
109.81 min
Inclination
87.8964°
Eccentricity
0.0002763
Mean motion
13.11415095 rev/d
Perigee alt
1,215.6 km
Apogee alt
1,219.8 km
Semi-major
7,595.8 km
B*
-3.9323e-4
RAAN
4.1989°
Arg perigee
93.9311°
Mean anomaly
266.2133°
Rev number
31,366

§ Raw data

ONEWEB-00601 45455U 20020AH  26253.01498707 -.00000127  00000+0 -39323-3 0  99952 45455  87.8964   4.1989 0002763  93.9311 266.2133 13.11415095313664

JSON: /api/v1/satellites/45455 · /tle

For live sub-satellite position, see the globe view (requires WebGL).

§ Visibility from observer

Set your observer location to see the next 7 days of passes ≥ 10°. The values pass through the URL so the page stays shareable.

No JS? Fill the form by hand. The geolocation button needs JavaScript.